Time,TemperatureF,DewpointF,PressureIn,WindDirection,WindDirectionDegrees,WindSpeedMPH,WindSpeedGustMPH,Humidity,HourlyPrecipIn,Conditions,Clouds,dailyrainin,SoftwareType,DateUTC
2013-02-24 00:01:00,29.3,17.2,29.96,ESE,113,0.9,0.9,60,0.00,,,0.00,WUHU216HW,2013-02-24 07:01:00,
2013-02-24 00:11:00,29.5,17.4,29.96,SSE,158,0.7,2.7,60,0.00,,,0.00,WUHU216HW,2013-02-24 07:11:00,
2013-02-24 00:21:00,29.5,17.7,29.96,SSW,203,1.1,2.9,61,0.00,,,0.00,WUHU216HW,2013-02-24 07:21:00,
2013-02-24 00:31:00,29.5,17.7,29.97,ESE,113,1.1,1.1,61,0.00,,,0.00,WUHU216HW,2013-02-24 07:31:00,
2013-02-24 00:41:00,29.5,17.7,29.97,SE,135,0.7,2.0,61,0.00,,,0.00,WUHU216HW,2013-02-24 07:41:00,
2013-02-24 00:51:00,29.3,17.6,29.97,NNE,23,0.0,1.1,61,0.00,,,0.00,WUHU216HW,2013-02-24 07:51:00,
2013-02-24 01:01:00,29.2,17.7,29.97,West,270,0.4,0.7,62,0.00,,,0.00,WUHU216HW,2013-02-24 08:01:00,
2013-02-24 01:11:00,29.2,17.7,29.97,SSE,158,0.4,0.7,62,0.00,,,0.00,WUHU216HW,2013-02-24 08:11:00,
2013-02-24 01:21:00,29.2,17.7,29.98,ESE,113,1.3,1.6,62,0.00,,,0.00,WUHU216HW,2013-02-24 08:21:00,
2013-02-24 01:31:00,29.2,17.7,29.98,SE,135,2.2,2.2,62,0.00,,,0.00,WUHU216HW,2013-02-24 08:31:00,
2013-02-24 01:41:00,29.2,17.7,29.98,SE,135,0.2,1.8,62,0.00,,,0.00,WUHU216HW,2013-02-24 08:41:00,
2013-02-24 01:51:00,29.2,17.7,29.98,SE,135,1.8,2.5,62,0.00,,,0.00,WUHU216HW,2013-02-24 08:51:00,
2013-02-24 02:01:00,29.3,17.9,29.98,South,180,3.4,3.4,62,0.00,,,0.00,WUHU216HW,2013-02-24 09:01:00,
2013-02-24 02:11:00,29.3,18.3,29.98,SSE,158,2.7,3.6,63,0.00,,,0.00,WUHU216HW,2013-02-24 09:11:00,
2013-02-24 02:21:00,29.3,18.3,29.98,SE,135,3.1,3.4,63,0.00,,,0.00,WUHU216HW,2013-02-24 09:21:00,
2013-02-24 02:31:00,29.3,18.3,29.99,SE,135,1.1,4.3,63,0.00,,,0.00,WUHU216HW,2013-02-24 09:31:00,
2013-02-24 02:41:00,29.3,18.3,29.99,SSE,158,2.0,4.0,63,0.00,,,0.00,WUHU216HW,2013-02-24 09:41:00,
2013-02-24 02:51:00,29.3,18.3,30.00,SSE,158,2.2,3.1,63,0.00,,,0.00,WUHU216HW,2013-02-24 09:51:00,
2013-02-24 03:01:00,29.5,18.8,30.00,South,180,1.8,1.8,64,0.00,,,0.00,WUHU216HW,2013-02-24 10:01:00,
2013-02-24 03:11:00,29.5,18.8,30.00,SSW,203,2.2,2.2,64,0.00,,,0.00,WUHU216HW,2013-02-24 10:11:00,
2013-02-24 03:21:00,29.5,18.8,29.99,South,180,1.8,2.9,64,0.00,,,0.00,WUHU216HW,2013-02-24 10:21:00,
2013-02-24 03:31:00,29.5,18.8,30.00,SW,225,0.4,3.4,64,0.00,,,0.00,WUHU216HW,2013-02-24 10:31:00,
2013-02-24 03:41:00,29.5,18.8,30.00,SSE,158,1.6,3.4,64,0.00,,,0.00,WUHU216HW,2013-02-24 10:41:00,
2013-02-24 03:51:00,29.3,18.3,30.00,South,180,1.6,3.6,63,0.00,,,0.00,WUHU216HW,2013-02-24 10:51:00,
2013-02-24 04:01:00,29.2,18.1,30.00,South,180,4.0,4.0,63,0.00,,,0.00,WUHU216HW,2013-02-24 11:01:00,
2013-02-24 04:11:00,29.0,18.3,30.00,NNW,338,1.3,1.6,64,0.00,,,0.00,WUHU216HW,2013-02-24 11:11:00,
2013-02-24 04:21:00,28.8,18.2,30.00,SSW,203,0.4,1.1,64,0.00,,,0.00,WUHU216HW,2013-02-24 11:21:00,
2013-02-24 04:31:00,28.8,18.2,30.00,ENE,68,0.4,2.0,64,0.00,,,0.00,WUHU216HW,2013-02-24 11:31:00,
2013-02-24 04:41:00,29.0,18.6,30.00,North,0,0.2,1.8,65,0.00,,,0.00,WUHU216HW,2013-02-24 11:41:00,
2013-02-24 04:51:00,28.8,18.6,30.00,East,90,0.0,1.8,65,0.00,,,0.00,WUHU216HW,2013-02-24 11:51:00,
2013-02-24 05:01:00,28.8,18.9,30.01,North,0,0.7,0.7,66,0.00,,,0.00,WUHU216HW,2013-02-24 12:01:00,
2013-02-24 05:11:00,28.6,18.7,30.01,SSE,158,0.4,0.4,66,0.00,,,0.00,WUHU216HW,2013-02-24 12:11:00,
2013-02-24 05:21:00,28.8,18.9,30.01,South,180,0.0,1.3,66,0.00,,,0.00,WUHU216HW,2013-02-24 12:21:00,
2013-02-24 05:31:00,28.8,18.9,30.01,ESE,113,0.7,1.3,66,0.00,,,0.00,WUHU216HW,2013-02-24 12:31:00,
2013-02-24 05:42:00,28.8,18.9,30.02,SE,135,0.0,0.7,66,0.00,,,0.00,WUHU216HW,2013-02-24 12:42:00,
2013-02-24 05:52:00,29.0,19.0,30.02,West,270,0.0,0.4,66,0.00,,,0.00,WUHU216HW,2013-02-24 12:52:00,
2013-02-24 06:02:00,29.0,19.4,30.02,SE,135,0.7,4.0,67,0.00,,,0.00,WUHU216HW,2013-02-24 13:02:00,
2013-02-24 06:12:00,29.0,19.0,30.02,South,180,2.5,3.1,66,0.00,,,0.00,WUHU216HW,2013-02-24 13:12:00,
2013-02-24 06:22:00,29.2,19.2,30.02,ESE,113,0.9,1.8,66,0.00,,,0.00,WUHU216HW,2013-02-24 13:22:00,
2013-02-24 06:32:00,29.2,19.2,30.02,South,180,2.9,3.1,66,0.00,,,0.00,WUHU216HW,2013-02-24 13:32:00,
2013-02-24 06:42:00,29.2,19.2,30.02,SSW,203,0.0,1.8,66,0.00,,,0.00,WUHU216HW,2013-02-24 13:42:00,
2013-02-24 06:52:00,29.2,19.2,30.02,WSW,248,0.0,1.3,66,0.00,,,0.00,WUHU216HW,2013-02-24 13:52:00,
2013-02-24 07:02:00,29.2,19.2,30.02,SE,135,0.7,1.8,66,0.00,,,0.00,WUHU216HW,2013-02-24 14:02:00,
2013-02-24 07:12:00,29.2,19.2,30.02,ESE,113,0.4,0.9,66,0.00,,,0.00,WUHU216HW,2013-02-24 14:12:00,
2013-02-24 07:22:00,28.8,18.9,30.02,SE,135,1.1,1.6,66,0.00,,,0.00,WUHU216HW,2013-02-24 14:22:00,
2013-02-24 07:32:00,28.6,18.7,30.02,South,180,1.8,1.8,66,0.00,,,0.00,WUHU216HW,2013-02-24 14:32:00,
2013-02-24 07:42:00,28.4,18.5,30.02,SSW,203,2.9,3.4,66,0.00,,,0.00,WUHU216HW,2013-02-24 14:42:00,
2013-02-24 07:52:00,28.4,18.5,30.03,SSW,203,3.6,4.0,66,0.00,,,0.00,WUHU216HW,2013-02-24 14:52:00,
2013-02-24 08:02:00,28.3,18.7,30.02,SSW,203,4.3,5.6,67,0.00,,,0.00,WUHU216HW,2013-02-24 15:02:00,
2013-02-24 08:12:00,28.4,18.9,30.03,SSW,203,4.5,5.4,67,0.00,,,0.00,WUHU216HW,2013-02-24 15:12:00,
2013-02-24 08:22:00,28.4,18.9,30.03,SSW,203,2.5,5.4,67,0.00,,,0.00,WUHU216HW,2013-02-24 15:22:00,
2013-02-24 08:32:00,28.6,19.1,30.03,SSW,203,5.6,6.7,67,0.00,,,0.00,WUHU216HW,2013-02-24 15:32:00,
2013-02-24 08:42:00,28.8,19.3,30.03,SSE,158,2.5,8.1,67,0.00,,,0.00,WUHU216HW,2013-02-24 15:42:00,
2013-02-24 08:52:00,29.2,19.5,30.03,SSW,203,3.4,6.5,67,0.00,,,0.00,WUHU216HW,2013-02-24 15:52:00,
2013-02-24 09:02:00,29.5,20.3,30.04,SSW,203,4.0,7.2,68,0.00,,,0.00,WUHU216HW,2013-02-24 16:02:00,
2013-02-24 09:12:00,30.1,20.3,30.04,SSW,203,3.8,6.9,67,0.00,,,0.00,WUHU216HW,2013-02-24 16:12:00,
2013-02-24 09:22:00,30.8,20.7,30.04,South,180,3.8,5.8,66,0.00,,,0.00,WUHU216HW,2013-02-24 16:22:00,
2013-02-24 09:32:00,31.3,21.2,30.05,SSW,203,5.4,5.8,66,0.00,,,0.00,WUHU216HW,2013-02-24 16:32:00,
2013-02-24 09:42:00,31.7,21.6,30.04,SSW,203,2.7,8.1,66,0.00,,,0.00,WUHU216HW,2013-02-24 16:42:00,
2013-02-24 09:52:00,32.2,22.2,30.04,SSE,158,2.5,4.3,66,0.00,,,0.00,WUHU216HW,2013-02-24 16:52:00,
2013-02-24 10:02:00,32.9,22.4,30.04,SSE,158,3.8,3.8,65,0.00,,,0.00,WUHU216HW,2013-02-24 17:02:00,
2013-02-24 10:12:00,33.7,22.7,30.05,SSW,203,3.8,4.3,64,0.00,,,0.00,WUHU216HW,2013-02-24 17:12:00,
2013-02-24 10:22:00,34.2,22.9,30.05,South,180,1.1,4.7,63,0.00,,,0.00,WUHU216HW,2013-02-24 17:22:00,
2013-02-24 10:33:00,34.9,23.2,30.05,South,180,2.5,2.7,62,0.00,,,0.00,WUHU216HW,2013-02-24 17:33:00,
2013-02-24 10:43:00,35.3,22.9,30.05,NE,45,1.8,6.3,60,0.00,,,0.00,WUHU216HW,2013-02-24 17:43:00,
2013-02-24 10:53:00,35.3,22.9,30.05,WNW,293,2.5,2.5,60,0.00,,,0.00,WUHU216HW,2013-02-24 17:53:00,
2013-02-24 11:03:00,35.5,23.0,30.05,NW,315,2.2,4.0,60,0.00,,,0.00,WUHU216HW,2013-02-24 18:03:00,
2013-02-24 11:13:00,35.3,22.9,30.05,NW,315,2.0,4.7,60,0.00,,,0.00,WUHU216HW,2013-02-24 18:13:00,
2013-02-24 11:23:00,35.1,22.7,30.04,North,0,1.1,7.6,60,0.00,,,0.00,WUHU216HW,2013-02-24 18:23:00,
2013-02-24 11:33:00,34.9,22.9,30.04,NNE,23,1.8,5.4,61,0.00,,,0.00,WUHU216HW,2013-02-24 18:33:00,
2013-02-24 11:43:00,35.6,22.8,30.04,WSW,248,8.3,8.3,59,0.00,,,0.00,WUHU216HW,2013-02-24 18:43:00,
2013-02-24 11:53:00,36.5,23.6,30.04,North,0,2.5,7.6,59,0.00,,,0.00,WUHU216HW,2013-02-24 18:53:00,
2013-02-24 12:03:00,36.9,22.6,30.04,West,270,4.9,12.1,56,0.00,,,0.00,WUHU216HW,2013-02-24 19:03:00,
2013-02-24 12:13:00,37.1,22.3,30.04,WSW,248,4.7,12.1,55,0.00,,,0.00,WUHU216HW,2013-02-24 19:13:00,
2013-02-24 12:23:00,37.4,22.2,30.03,WSW,248,6.7,13.0,54,0.00,,,0.00,WUHU216HW,2013-02-24 19:23:00,
2013-02-24 12:33:00,38.3,22.6,30.03,WSW,248,6.3,9.2,53,0.00,,,0.00,WUHU216HW,2013-02-24 19:33:00,
2013-02-24 12:43:00,39.4,22.8,30.03,WNW,293,9.2,13.0,51,0.00,,,0.00,WUHU216HW,2013-02-24 19:43:00,
2013-02-24 12:53:00,39.4,21.2,30.03,West,270,9.4,15.2,48,0.00,,,0.00,WUHU216HW,2013-02-24 19:53:00,
2013-02-24 13:03:00,39.2,21.1,30.02,WNW,293,9.4,13.9,48,0.00,,,0.00,WUHU216HW,2013-02-24 20:03:00,
2013-02-24 13:13:00,39.1,21.0,30.02,West,270,6.9,10.7,48,0.00,,,0.00,WUHU216HW,2013-02-24 20:13:00,
2013-02-24 13:23:00,38.9,21.3,30.02,NNW,338,6.9,12.8,49,0.00,,,0.00,WUHU216HW,2013-02-24 20:23:00,
2013-02-24 13:33:00,38.3,21.3,30.02,WNW,293,7.6,10.5,50,0.00,,,0.00,WUHU216HW,2013-02-24 20:33:00,
2013-02-24 13:43:00,37.6,20.2,30.02,WNW,293,7.6,11.4,49,0.00,,,0.00,WUHU216HW,2013-02-24 20:43:00,
2013-02-24 13:53:00,37.6,21.2,30.02,West,270,7.2,11.0,51,0.00,,,0.00,WUHU216HW,2013-02-24 20:53:00,
2013-02-24 14:03:00,37.4,21.4,30.02,WNW,293,4.3,9.8,52,0.00,,,0.00,WUHU216HW,2013-02-24 21:03:00,
2013-02-24 14:13:00,37.4,21.0,30.02,West,270,6.3,8.7,51,0.00,,,0.00,WUHU216HW,2013-02-24 21:13:00,
2013-02-24 14:23:00,37.4,21.4,30.02,West,270,5.4,8.9,52,0.00,,,0.00,WUHU216HW,2013-02-24 21:23:00,
2013-02-24 14:33:00,37.4,21.4,30.02,WNW,293,6.3,6.9,52,0.00,,,0.00,WUHU216HW,2013-02-24 21:33:00,
2013-02-24 14:43:00,37.1,21.1,30.01,WNW,293,8.5,8.9,52,0.00,,,0.00,WUHU216HW,2013-02-24 21:43:00,
2013-02-24 14:53:00,37.4,21.4,30.01,WNW,293,7.4,11.9,52,0.00,,,0.00,WUHU216HW,2013-02-24 21:53:00,
2013-02-24 15:03:00,37.3,21.7,30.00,West,270,5.8,8.1,53,0.00,,,0.00,WUHU216HW,2013-02-24 22:03:00,
2013-02-24 15:13:00,37.4,21.8,30.00,WNW,293,5.6,8.7,53,0.00,,,0.00,WUHU216HW,2013-02-24 22:13:00,
2013-02-24 15:23:00,37.8,22.1,30.00,NW,315,2.2,8.7,53,0.00,,,0.00,WUHU216HW,2013-02-24 22:23:00,
2013-02-24 15:33:00,37.6,21.5,30.00,NW,315,4.3,10.5,52,0.00,,,0.00,WUHU216HW,2013-02-24 22:33:00,
2013-02-24 15:43:00,37.6,21.2,30.00,NNW,338,6.9,8.5,51,0.00,,,0.00,WUHU216HW,2013-02-24 22:43:00,
2013-02-24 15:53:00,37.8,21.7,30.00,WNW,293,6.0,8.3,52,0.00,,,0.00,WUHU216HW,2013-02-24 22:53:00,
2013-02-24 16:03:00,37.8,22.1,30.00,NNW,338,4.0,7.6,53,0.00,,,0.00,WUHU216HW,2013-02-24 23:03:00,
2013-02-24 16:14:00,37.6,21.5,30.01,NW,315,1.8,5.4,52,0.00,,,0.00,WUHU216HW,2013-02-24 23:14:00,
2013-02-24 16:24:00,37.6,21.5,30.00,WNW,293,6.5,6.9,52,0.00,,,0.00,WUHU216HW,2013-02-24 23:24:00,
2013-02-24 16:34:00,37.4,21.4,30.01,SW,225,3.1,9.8,52,0.00,,,0.00,WUHU216HW,2013-02-24 23:34:00,
2013-02-24 16:44:00,37.6,21.5,30.01,WNW,293,5.8,9.2,52,0.00,,,0.00,WUHU216HW,2013-02-24 23:44:00,
2013-02-24 16:54:00,37.4,21.4,30.00,West,270,2.5,6.3,52,0.00,,,0.00,WUHU216HW,2013-02-24 23:54:00,
2013-02-24 17:04:00,37.4,21.8,30.00,WSW,248,6.3,6.3,53,0.00,,,0.00,WUHU216HW,2013-02-25 00:04:00,
2013-02-24 17:14:00,37.3,21.7,30.00,NW,315,1.3,6.3,53,0.00,,,0.00,WUHU216HW,2013-02-25 00:14:00,
2013-02-24 17:24:00,37.3,21.7,30.00,WNW,293,1.8,2.2,53,0.00,,,0.00,WUHU216HW,2013-02-25 00:24:00,
2013-02-24 17:34:00,37.1,21.5,30.00,NW,315,3.4,3.4,53,0.00,,,0.00,WUHU216HW,2013-02-25 00:34:00,
2013-02-24 17:44:00,36.7,21.6,29.99,NE,45,1.1,3.1,54,0.00,,,0.00,WUHU216HW,2013-02-25 00:44:00,
2013-02-24 17:54:00,36.5,21.4,29.99,NNW,338,4.0,4.9,54,0.00,,,0.00,WUHU216HW,2013-02-25 00:54:00,
2013-02-24 18:04:00,36.4,21.2,29.99,NNE,23,2.7,4.9,54,0.00,,,0.00,WUHU216HW,2013-02-25 01:04:00,
2013-02-24 18:14:00,36.2,21.5,29.99,NW,315,1.1,4.0,55,0.00,,,0.00,WUHU216HW,2013-02-25 01:14:00,
2013-02-24 18:24:00,36.0,21.4,29.99,WSW,248,0.4,2.0,55,0.00,,,0.00,WUHU216HW,2013-02-25 01:24:00,
2013-02-24 18:35:00,36.2,21.5,29.99,NNE,23,1.1,3.1,55,0.00,,,0.00,WUHU216HW,2013-02-25 01:35:00,
2013-02-24 18:45:00,36.4,21.7,29.99,NNW,338,0.4,2.0,55,0.00,,,0.00,WUHU216HW,2013-02-25 01:45:00,
2013-02-24 18:55:00,36.4,21.2,29.98,NNW,338,1.8,2.0,54,0.00,,,0.00,WUHU216HW,2013-02-25 01:55:00,
2013-02-24 19:05:00,35.8,21.3,29.98,NNW,338,0.2,3.8,55,0.00,,,0.00,WUHU216HW,2013-02-25 02:05:00,
2013-02-24 19:15:00,35.3,21.2,29.98,North,0,1.8,6.7,56,0.00,,,0.00,WUHU216HW,2013-02-25 02:15:00,
2013-02-24 19:25:00,34.9,20.8,29.98,NE,45,0.4,4.7,56,0.00,,,0.00,WUHU216HW,2013-02-25 02:25:00,
2013-02-24 19:35:00,34.9,20.8,29.97,ENE,68,3.1,3.1,56,0.00,,,0.00,WUHU216HW,2013-02-25 02:35:00,
2013-02-24 19:45:00,35.1,21.4,29.97,East,90,1.8,2.7,57,0.00,,,0.00,WUHU216HW,2013-02-25 02:45:00,
2013-02-24 19:55:00,35.1,21.4,29.98,East,90,2.5,4.5,57,0.00,,,0.00,WUHU216HW,2013-02-25 02:55:00,
2013-02-24 20:05:00,34.9,20.8,29.98,ENE,68,3.4,5.4,56,0.00,,,0.00,WUHU216HW,2013-02-25 03:05:00,
2013-02-24 20:15:00,34.7,20.6,29.97,ENE,68,3.8,4.9,56,0.00,,,0.00,WUHU216HW,2013-02-25 03:15:00,
2013-02-24 20:25:00,34.4,20.3,29.97,NNE,23,4.7,4.7,56,0.00,,,0.00,WUHU216HW,2013-02-25 03:25:00,
2013-02-24 20:35:00,34.2,20.1,29.97,NE,45,2.9,4.7,56,0.00,,,0.00,WUHU216HW,2013-02-25 03:35:00,
2013-02-24 20:45:00,34.4,20.7,29.97,NNE,23,1.8,3.4,57,0.00,,,0.00,WUHU216HW,2013-02-25 03:45:00,
2013-02-24 20:55:00,34.6,20.4,29.97,ENE,68,3.4,3.4,56,0.00,,,0.00,WUHU216HW,2013-02-25 03:55:00,
2013-02-24 21:05:00,34.4,20.3,29.97,NE,45,2.5,4.9,56,0.00,,,0.00,WUHU216HW,2013-02-25 04:05:00,
2013-02-24 21:15:00,34.2,20.1,29.96,North,0,2.5,4.3,56,0.00,,,0.00,WUHU216HW,2013-02-25 04:15:00,
2013-02-24 21:25:00,34.2,20.1,29.96,NE,45,0.2,2.9,56,0.00,,,0.00,WUHU216HW,2013-02-25 04:25:00,
2013-02-24 21:35:00,34.6,20.4,29.95,ENE,68,1.1,2.5,56,0.00,,,0.00,WUHU216HW,2013-02-25 04:35:00,
2013-02-24 21:45:00,34.6,20.4,29.95,NE,45,3.4,3.4,56,0.00,,,0.00,WUHU216HW,2013-02-25 04:45:00,
2013-02-24 21:55:00,34.6,20.4,29.96,East,90,2.2,2.2,56,0.00,,,0.00,WUHU216HW,2013-02-25 04:55:00,
2013-02-24 22:05:00,34.6,20.4,29.95,ESE,113,0.9,2.7,56,0.00,,,0.00,WUHU216HW,2013-02-25 05:05:00,
2013-02-24 22:15:00,34.4,20.3,29.95,East,90,0.0,1.1,56,0.00,,,0.00,WUHU216HW,2013-02-25 05:15:00,
2013-02-24 22:25:00,34.2,20.1,29.94,South,180,2.0,2.0,56,0.00,,,0.00,WUHU216HW,2013-02-25 05:25:00,
2013-02-24 22:35:00,33.8,19.7,29.94,ESE,113,1.3,3.8,56,0.00,,,0.00,WUHU216HW,2013-02-25 05:35:00,
2013-02-24 22:45:00,33.3,19.2,29.94,East,90,0.4,1.3,56,0.00,,,0.00,WUHU216HW,2013-02-25 05:45:00,
2013-02-24 22:55:00,33.1,19.1,29.94,South,180,0.0,0.4,56,0.00,,,0.00,WUHU216HW,2013-02-25 05:55:00,
2013-02-24 23:05:00,32.9,19.4,29.94,SSW,203,0.7,2.5,57,0.00,,,0.00,WUHU216HW,2013-02-25 06:05:00,
2013-02-24 23:15:00,32.6,19.0,29.94,SSW,203,3.4,3.4,57,0.00,,,0.00,WUHU216HW,2013-02-25 06:15:00,
2013-02-24 23:25:00,31.5,18.5,29.94,SSW,203,3.4,4.0,58,0.00,,,0.00,WUHU216HW,2013-02-25 06:25:00,
2013-02-24 23:35:00,30.6,17.9,29.94,SSE,158,0.4,4.0,59,0.00,,,0.00,WUHU216HW,2013-02-25 06:35:00,
2013-02-24 23:45:00,30.2,18.0,29.93,SE,135,0.7,2.5,60,0.00,,,0.00,WUHU216HW,2013-02-25 06:45:00,
2013-02-24 23:55:00,30.2,18.0,29.93,SE,135,1.3,1.8,60,0.00,,,0.00,WUHU216HW,2013-02-25 06:55:00,